Regional Weather Roundup
Issued by NWS

Home | Current Version | Previous Version | Graphics & Text | Print | Product List | Glossary On
Versions: 1 2 3 4 5 6 7 8 9 10 11 12 13 14 15 16 17 18 19 20 21 22 23 24 25 26 27 28 29 30 31 32 33 34 35 36 37 38 39 40 41 42 43 44 45 46 47 48 49 50
000
ASUS43 KLMK 171302
RWRKY
KENTUCKY REGIONAL WEATHER ROUNDUP
NATIONAL WEATHER SERVICE LOUISVILLE KY
800 AM EST SUN DEC 17 2017

NOTE "FAIR" INDICATES FEW OR NO CLOUDS BELOW 12,000 FEET
WITH NO SIGNIFICANT WEATHER AND/OR OBSTRUCTIONS TO VISIBILITY.

KYZ001>023-026-027-061>063-070>075-171400-
WESTERN AND SOUTH CENTRAL KENTUCKY

CITY           SKY/WX    TMP DP  RH WIND       PRES   REMARKS
PADUCAH        LGT RAIN  42  35  76 S7        30.15S
HENDERSON      LGT RAIN  42  33  70 S7        30.16F
OWENSBORO      CLOUDY    41  32  70 SE6       30.18F
HOPKINSVILLE   CLOUDY    42  32  67 SE7       30.18F
BOWLING GREEN  CLOUDY    42  32  67 SE3       30.22F
GLASGOW        NOT AVBL
$$

KYZ024-025-028>034-038-045-046-053-171400-
NORTH CENTRAL KENTUCKY

CITY           SKY/WX    TMP DP  RH WIND       PRES   REMARKS
LOUISVILLE/SDF CLOUDY    43  30  60 SW3       30.21R
LOUISVILLE/LOU CLOUDY    42  32  67 S5        30.21R
FORT KNOX      CLOUDY    40  31  69 S7        30.20R
$$

KYZ035>037-039>044-047>052-055>060-089>105-171400-
NORTHEAST KENTUCKY

CITY           SKY/WX    TMP DP  RH WIND       PRES   REMARKS
LEXINGTON      CLOUDY    40  29  64 S5        30.19R
COVINGTON      CLOUDY    38  31  76 S9        30.18R WCI  31
FRANKFORT      CLOUDY    40  28  62 SW5       30.19R
$$

KYZ054-064>069-076>088-106>120-171400-
SOUTHEAST KENTUCKY

CITY           SKY/WX    TMP DP  RH WIND       PRES   REMARKS
JACKSON        CLOUDY    39  26  59 CALM      30.19R
LONDON         CLOUDY    35  29  78 CALM      30.23R
SOMERSET       NOT AVBL
MIDDLESBORO    CLOUDY    31  29  94 CALM      30.25S
MONTICELLO     CLOUDY    39  32  76 W8        30.28R WCI  33
$$





USA.gov is the U.S. government's official web portal to all federal, state and local government web resources and services.